Wind_Gust
11 12 10 11 10 12 8 7 7 9 9 12 14 10 21 10 11 8 10 7 18 13 19 16 21 29 31 26 29 23 22 17 13 14 13 18 11 21 20 21 20 19 17 13 12 10 12 13 14 13 13 13 12 13 16 18 18 19 17 15 17 16 17 18 18 17 16 15 17 16 16 15 14 12 10 10 11 10 11 12 12 14 14 14 15 17 18 18 18 18 18 19 21 21 22 22 21
11 10 9 12 13 4 8 7 7 5 8 9 22 12 23 18 11 6 7 15 16 19 19 20 24 24 25 21 21 31 29 26 24 30 26 20 15 18 19 18 18 20 15 12 10 11 10 13 15 13 12 13 12 13 16 17 17 18 21 21 20 15 15 16 17 17 16 15 16 17 17 15 14 13 11 10 9 9 10 11 12 13 14 14 14 15 17 18 17 17 18 19 19 22 22 21 20
10 10 14 11 11 9 11 7 8 5 7 14 20 20 18 12 11 18 21 18 19 19 20 23 27 24 23 25 28 26 23 22 26 22 24 19 19 13 17 18 19 18 16 12 11 10 9 13 16 14 11 11 12 12 14 16 17 18 20 21 21 19 17 17 16 17 16 15 16 16 16 16 14 13 13 11 9 8 9 10 11 12 12 13 13 15 16 17 16 16 17 19 20 22 22 21 19
8 8 9 7 8 7 6 6 6 9 9 17 19 10 23 13 19 24 22 21 15 15 21 25 26 18 27 31 27 22 19 19 18 20 23 13 14 16 20 17 17 16 14 11 10 9 9 14 16 14 11 11 11 12 12 16 16 17 18 20 21 21 20 17 18 16 16 16 16 17 15 15 14 13 13 11 12 11 10 10 10 10 9 11 13 12 14 15 15 15 16 19 20 22 22 20 18
6 9 7 11 7 8 7 8 9 10 17 16 13 18 12 15 15 18 16 14 10 13 20 26 31 20 23 20 15 22 16 18 21 17 26 18 17 18 19 18 15 15 13 10 10 10 10 17 16 14 12 9 10 11 12 14 15 17 19 21 21 21 21 19 17 17 16 16 16 17 16 15 15 14 13 13 12 12 10 9 8 8 9 10 10 10 9 10 13 14 16 19 20 22 21 19 17
10 9 10 10 11 12 13 8 8 14 17 11 15 18 4 18 16 12 11 9 12 14 15 17 25 22 29 25 21 21 10 15 18 20 26 20 22 21 21 17 15 15 14 12 10 9 10 15 14 14 12 9 9 11 12 13 15 16 17 20 21 21 19 18 18 17 16 16 15 16 16 16 15 15 14 14 13 12 11 10 10 11 11 11 10 9 9 9 10 11 15 19 21 21 20 18 16
11 5 9 8 13 8 6 8 13 11 19 15 23 19 5 14 17 16 12 13 11 24 18 25 29 23 26 21 27 21 15 14 19 21 17 23 22 21 20 18 16 17 17 13 11 11 11 12 13 13 13 10 8 9 12 12 13 14 16 19 20 20 19 18 17 16 16 16 16 16 16 16 15 15 14 14 14 12 11 11 11 11 11 11 11 11 10 10 11 16 17 16 20 20 18 16 15
13 7 7 8 9 10 7 11 14 13 18 14 12 20 11 13 11 14 12 3 8 12 16 20 21 31 16 10 27 17 18 19 23 26 26 22 22 23 22 18 16 18 17 13 10 11 16 12 13 13 13 10 11 11 12 13 13 13 14 15 16 15 17 17 14 15 15 15 16 16 16 16 16 15 15 15 15 13 11 11 12 12 12 13 12 12 12 12 14 16 16 17 19 20 17 15 14
11 11 7 8 10 13 9 12 17 15 24 20 11 6 12 11 10 15 11 9 9 7 15 25 30 31 19 21 22 17 23 18 22 22 21 21 22 22 23 18 17 18 18 16 12 10 9 12 13 13 13 11 9 9 10 12 11 12 14 15 14 14 14 13 13 14 14 13 13 16 17 17 15 13 14 14 15 13 12 12 12 13 13 13 14 13 13 12 13 15 16 18 18 19 17 15 12
13 13 7 12 7 10 10 12 11 17 25 17 20 12 12 12 7 6 12 10 11 10 24 25 30 30 21 23 21 10 20 18 20 20 20 23 23 21 19 18 18 19 17 15 12 11 9 16 14 14 13 12 10 9 8 8 10 12 13 14 13 13 12 13 12 13 14 12 12 14 15 16 15 13 13 15 14 13 12 12 12 13 13 14 14 13 12 12 12 13 15 16 16 17 16 14 11
15 13 8 10 8 11 11 12 14 15 17 14 13 8 11 9 4 9 5 16 13 22 24 26 34 27 21 17 18 15 20 21 22 24 21 19 19 18 17 17 18 15 17 15 11 11 11 11 19 14 14 12 11 11 10 9 9 11 12 12 13 12 12 12 13 13 14 13 12 13 14 15 15 13 13 13 13 12 12 12 12 13 12 14 14 12 12 12 12 12 13 15 14 13 13 12 9
9 11 11 9 11 9 11 15 16 17 18 16 6 7 4 6 6 4 12 10 18 14 19 19 22 31 22 24 19 17 20 20 23 23 24 21 18 17 15 14 16 16 14 13 12 10 10 10 10 16 14 13 13 12 10 9 9 10 12 12 12 11 12 12 12 13 13 13 13 12 13 14 14 13 13 12 12 12 13 13 13 13 14 14 13 12 11 11 12 13 12 14 14 12 11 10 9
12 9 7 11 11 8 14 16 17 18 15 14 12 12 14 5 6 2 6 14 12 12 10 27 31 23 22 17 17 20 20 17 21 25 24 21 19 17 16 18 17 19 17 13 12 10 9 8 9 9 12 17 14 13 11 9 8 9 11 11 12 12 12 12 11 12 13 13 12 12 12 13 13 13 13 12 13 13 13 12 12 14 14 14 13 12 11 11 12 14 14 14 14 12 11 10 7
13 11 8 12 9 13 15 14 15 12 15 9 10 11 13 9 6 8 12 14 11 13 10 29 23 27 23 22 16 18 20 18 20 21 22 21 18 20 19 20 16 17 18 16 14 12 9 9 9 10 9 9 10 12 11 10 9 9 9 10 11 11 12 12 11 12 12 13 12 12 12 12 12 13 13 13 14 13 12 12 12 13 14 14 13 12 11 12 12 13 14 14 14 12 11 10 7
14 8 11 12 13 9 8 17 12 15 9 11 11 14 11 3 13 14 9 19 16 16 27 25 34 24 26 24 18 20 20 18 17 17 16 14 16 16 19 18 16 15 17 17 15 14 14 11 10 10 7 10 9 9 8 10 11 9 10 10 10 12 11 11 10 10 13 13 13 12 11 12 12 13 13 13 16 15 13 13 13 13 14 15 13 12 12 12 13 12 13 12 11 11 10 9 8
12 10 12 9 11 8 16 13 9 13 11 11 10 13 10 10 6 14 21 21 13 9 9 13 8 13 26 19 24 23 21 22 17 16 18 16 13 11 14 11 12 14 15 15 15 14 14 14 13 13 11 11 10 9 11 10 11 11 9 10 10 11 12 11 12 12 9 13 13 12 12 11 10 11 15 13 16 16 14 11 13 13 14 15 14 13 13 13 14 13 11 9 9 10 10 9 8
8 11 10 10 13 9 12 12 5 18 6 11 10 6 6 17 18 23 14 18 20 16 23 25 22 17 19 24 26 25 21 19 18 17 15 13 13 13 10 9 11 10 11 10 10 13 13 15 13 11 10 14 12 11 12 11 11 14 10 9 10 10 11 10 13 14 11 10 11 9 9 7 6 7 8 9 14 14 14 14 14 15 15 15 15 14 14 13 13 12 10 9 8 9 9 9 7
8 14 11 10 13 15 15 13 9 8 15 9 5 9 9 12 6 8 10 16 18 18 22 26 29 27 28 27 25 24 22 20 18 17 15 14 12 13 12 8 10 11 9 7 7 10 10 10 10 9 9 11 11 10 11 11 11 10 8 8 7 8 7 8 9 10 11 6 8 9 7 8 9 11 7 9 7 8 13 14 14 14 14 15 15 13 14 13 13 12 10 9 8 8 10 8 6
11 11 10 14 12 23 17 11 14 18 6 7 8 6 6 9 10 5 12 14 14 20 23 26 25 23 22 23 23 21 18 16 15 17 15 14 14 14 12 10 7 7 9 8 7 8 10 10 9 10 10 10 10 8 11 11 10 9 9 9 8 7 9 8 5 9 8 8 7 8 6 7 10 11 9 9 8 12 8 13 14 15 14 15 14 13 12 13 13 12 11 8 8 9 9 7 7
12 8 11 14 14 18 19 16 13 6 5 5 5 12 3 8 11 8 7 11 15 19 26 23 28 23 21 20 20 18 16 15 14 15 14 12 12 13 10 9 8 7 6 8 7 8 10 9 10 11 9 10 11 9 10 10 7 8 10 8 9 7 7 7 5 5 8 9 9 7 8 10 11 11 12 15 10 9 5 9 12 14 14 14 14 10 10 11 13 13 11 11 9 7 7 6 9
12 13 12 18 16 21 12 13 10 4 6 7 10 7 7 13 10 12 8 8 9 14 25 29 28 28 26 22 17 15 13 12 10 12 16 18 12 11 13 12 13 11 8 8 9 6 10 10 10 7 10 10 10 10 10 12 8 9 7 7 7 7 6 6 6 6 6 8 8 8 8 7 9 10 11 11 8 11 8 6 8 7 8 8 9 5 5 7 6 6 8 9 9 9 8 7 8
8 17 18 17 18 18 16 18 19 16 11 6 10 3 5 7 7 8 10 6 3 7 14 29 30 28 29 22 18 14 13 10 9 15 14 14 13 12 10 9 8 9 10 11 6 7 3 9 9 10 9 7 7 8 9 10 12 10 8 7 8 7 6 5 6 9 5 7 7 8 8 8 7 9 10 12 11 8 10 8 7 5 6 6 7 6 5 4 4 6 8 9 9 9 9 9 9
16 11 13 16 18 19 4 17 19 14 17 10 5 4 4 7 5 6 4 7 5 17 18 25 27 28 24 20 17 13 9 9 12 15 18 16 13 11 12 11 13 12 10 7 5 6 10 9 9 10 9 6 6 8 8 11 10 10 9 7 8 8 7 8 8 9 8 8 6 5 10 8 7 7 9 9 9 8 8 7 9 7 5 7 7 8 7 8 8 8 9 8 8 9 10 8 13
15 15 12 19 13 11 12 11 8 9 10 11 12 5 8 11 5 9 6 15 12 21 28 30 29 26 24 21 13 15 11 10 12 15 15 16 15 12 11 13 11 10 10 6 8 8 10 11 9 8 6 6 7 8 8 10 9 9 8 10 9 10 9 8 8 6 7 9 7 6 6 7 7 7 7 7 9 8 8 6 6 1 5 7 10 8 9 9 10 8 8 9 9 9 10 11 17
13 19 9 12 8 8 11 10 5 3 8 6 15 11 6 4 7 13 10 12 17 27 29 29 27 23 19 18 15 13 11 10 11 12 11 12 12 13 12 12 11 11 10 6 5 9 7 7 7 10 9 6 6 8 9 10 10 10 9 9 9 10 8 8 8 7 8 8 7 7 4 5 5 3 6 6 6 6 6 6 6 5 3 4 10 9 8 11 9 8 10 12 8 8 10 12 18
15 12 6 11 7 4 12 9 4 1 5 5 6 7 9 9 9 5 7 8 14 13 28 29 25 23 21 18 17 13 13 11 12 13 16 14 15 17 12 13 12 11 9 8 9 6 5 6 8 8 7 10 6 10 10 9 8 11 10 11 10 9 7 7 6 10 9 7 7 6 7 5 4 4 5 7 6 5 5 5 4 3 4 2 3 10 3 9 11 9 9 11 11 8 9 10 12
9 9 13 15 5 3 4 9 6 7 8 3 7 3 8 10 5 5 5 11 8 9 18 25 25 22 19 17 15 12 13 13 16 14 15 13 14 17 12 12 12 10 9 8 6 4 6 11 10 9 9 7 5 10 6 9 10 11 11 10 10 9 6 7 8 8 10 11 5 6 6 9 8 5 7 6 6 5 5 8 9 3 2 3 2 2 6 6 8 9 10 12 11 11 11 11 12
7 6 7 11 9 7 4 6 5 4 8 6 2 5 4 11 7 10 5 11 9 11 10 14 21 19 20 18 15 11 13 13 17 16 17 15 15 15 11 14 11 9 10 7 7 9 12 10 10 6 6 7 10 9 9 8 9 12 11 9 8 9 8 9 9 9 11 13 14 9 8 7 5 6 6 5 4 3 5 4 6 7 5 6 12 8 2 5 9 10 10 9 9 7 10 8 9
8 4 9 7 3 9 8 8 10 6 8 8 5 6 9 9 9 11 11 9 8 11 8 10 14 18 18 17 15 14 17 15 15 16 14 14 12 13 14 12 14 10 6 9 10 10 9 8 9 6 7 8 9 8 9 9 8 11 9 7 7 6 5 8 8 8 9 12 7 13 11 9 5 7 7 6 7 6 6 5 5 4 9 11 10 6 4 7 9 14 18 16 13 3 3 9 6
5 7 6 8 8 11 11 9 7 7 9 11 11 9 9 12 15 9 14 6 11 8 5 8 9 18 20 15 15 16 16 16 15 16 14 14 13 15 16 11 13 13 11 9 9 9 7 8 7 6 8 9 8 8 9 10 8 8 9 7 5 2 6 6 8 7 9 10 9 7 11 11 11 6 8 7 8 9 8 7 4 4 4 11 11 8 10 6 7 11 20 21 17 5 2 8 5
7 8 7 11 6 13 15 19 13 11 9 14 10 6 10 13 16 18 10 17 14 9 4 4 10 16 19 16 17 18 18 19 18 16 13 13 14 17 16 12 15 12 11 9 9 8 8 8 7 8 7 8 8 9 8 7 7 9 8 5 3 4 4 10 6 7 9 6 11 10 8 8 10 11 8 10 10 10 9 8 7 4 3 5 9 9 11 11 7 8 13 18 19 10 7 8 9
8 9 12 7 11 15 16 19 18 19 12 16 13 8 14 14 20 19 11 18 16 12 9 6 7 16 17 16 17 19 18 18 20 20 16 15 17 16 18 16 15 14 13 11 9 8 9 7 9 9 7 7 6 5 4 6 8 8 6 6 4 5 7 6 5 10 9 8 9 10 8 5 6 8 8 9 11 10 9 8 7 6 6 5 7 12 10 8 6 7 9 16 15 11 8 6 7
10 9 5 10 13 18 19 19 18 18 19 12 18 12 9 3 13 14 25 19 17 12 8 7 8 11 18 15 17 18 19 18 20 21 15 17 18 18 18 17 18 16 13 12 10 9 9 10 11 9 7 7 6 5 4 5 8 7 4 4 5 7 8 9 6 9 7 9 9 9 6 4 2 3 6 9 9 8 8 13 8 9 5 5 5 4 8 8 9 11 12 14 12 11 8 7 10
11 13 16 14 11 10 14 16 18 19 17 13 14 11 9 6 7 6 13 12 11 7 7 8 9 8 15 13 16 19 19 21 22 22 18 18 19 17 18 19 18 16 14 14 12 12 13 11 10 9 8 7 8 8 6 6 5 7 5 7 7 8 6 8 10 10 11 11 9 9 6 7 8 9 8 6 6 8 7 11 12 11 6 4 4 8 9 13 13 12 9 14 14 17 7 5 5
3 4 7 12 10 11 11 16 15 15 17 12 12 11 8 8 3 8 12 7 10 9 8 8 10 10 14 12 13 19 15 20 19 21 22 20 20 18 20 19 19 17 15 14 12 11 11 10 10 9 8 8 7 7 5 5 4 4 5 5 8 6 5 9 10 12 13 10 8 6 8 11 9 10 7 8 11 9 8 8 7 8 6 4 3 6 9 12 14 13 13 16 14 17 3 4 6
9 7 9 8 7 8 14 15 19 21 14 15 12 17 11 12 8 9 9 14 12 13 10 6 9 12 12 13 12 18 18 16 16 20 22 21 22 21 23 22 20 19 18 16 14 12 11 9 8 8 9 9 7 5 4 4 3 6 6 5 9 5 6 8 8 9 9 9 6 8 8 8 8 7 7 8 6 6 10 15 8 5 5 6 5 7 7 11 12 12 14 14 14 8 5 4 3
2 5 7 9 12 13 13 18 8 9 9 9 7 8 8 11 8 6 8 6 10 8 11 9 7 10 13 13 14 12 13 17 20 26 25 25 25 24 24 24 21 20 19 19 17 14 12 14 11 10 9 8 8 5 4 5 4 4 7 8 8 7 9 6 7 5 7 7 6 6 6 5 8 5 6 6 6 5 4 6 8 11 8 7 7 6 5 3 10 10 8 10 10 6 6 5 5
5 3 5 9 11 12 5 8 6 5 7 2 2 2 4 5 5 10 5 9 12 12 8 10 8 11 12 14 13 12 10 8 15 17 18 21 24 21 22 22 20 22 19 19 20 18 14 13 13 11 9 7 7 8 8 8 6 9 9 9 7 9 12 10 4 3 5 6 4 4 3 6 7 5 3 6 4 3 1 2 5 8 9 8 8 6 4 5 6 4 4 4 4 7 9 4 5
5 4 4 10 12 14 10 7 9 10 6 6 6 4 6 8 11 11 14 7 11 15 17 13 16 11 12 15 13 12 12 10 19 21 13 20 21 21 21 21 21 22 21 21 19 16 15 15 13 10 11 8 7 9 11 10 6 6 7 8 10 7 5 7 7 4 5 9 5 4 6 7 6 5 5 2 5 5 5 3 4 4 4 7 5 6 5 5 6 7 5 6 7 5 7 6 6
4 8 7 7 9 9 11 10 7 6 6 4 6 8 10 7 9 12 12 15 11 15 15 13 11 13 12 12 13 13 12 12 16 26 21 21 23 23 20 21 21 20 20 17 17 18 17 16 12 12 11 8 8 6 9 7 9 8 8 10 6 8 7 6 6 3 4 7 6 5 5 6 4 1 3 3 4 4 3 2 4 5 6 1 6 6 4 5 5 6 6 6 5 8 9 6 6
8 5 6 8 11 11 6 5 3 2 3 2 4 6 12 9 15 21 15 18 15 13 17 10 8 9 10 9 7 10 15 13 13 17 17 16 20 22 24 24 22 22 20 20 18 19 17 17 16 15 12 10 7 9 11 10 9 7 6 5 5 6 7 5 5 4 4 4 7 7 5 5 6 4 4 5 4 4 5 4 5 5 6 8 7 5 3 6 8 7 7 7 10 11 9 10 5
7 6 7 8 9 19 10 2 6 10 13 6 7 13 14 12 18 22 19 13 10 12 19 15 13 13 10 9 9 7 6 8 15 17 22 27 26 21 21 22 22 22 22 20 20 18 16 15 16 13 11 11 11 10 11 13 11 11 7 8 5 5 6 8 6 6 4 6 5 2 3 6 4 2 1 1 2 3 2 2 3 4 5 7 7 6 4 6 3 3 8 9 10 11 11 7 13
4 12 6 13 18 15 10 5 4 5 9 12 12 14 20 11 12 12 17 15 19 14 16 17 15 17 16 17 15 15 13 9 7 8 8 22 24 24 22 23 22 22 21 19 18 17 16 15 16 15 13 13 13 11 11 12 10 9 10 11 9 10 10 5 5 6 7 6 6 5 3 3 6 5 1 1 1 1 2 2 2 2 3 5 6 6 8 6 5 6 3 6 9 8 8 13 15
12 4 4 6 7 15 21 11 6 10 9 10 11 12 13 15 20 15 9 11 14 14 16 18 17 18 19 17 20 18 19 14 15 12 17 22 23 25 25 24 22 25 21 19 19 17 17 16 16 15 13 14 13 13 12 13 13 9 8 8 9 13 11 10 8 7 7 6 8 5 5 4 5 5 6 2 2 1 2 3 5 6 7 8 8 9 8 8 9 7 8 5 9 8 9 14 15
12 4 7 8 9 6 6 10 4 6 3 12 6 10 14 13 19 13 11 6 11 15 21 18 15 14 19 19 18 19 19 18 17 17 17 22 25 23 24 24 21 22 22 22 21 19 17 16 15 15 14 15 13 13 13 11 11 12 11 8 8 10 11 11 9 7 6 6 6 5 5 3 4 3 6 2 1 1 2 5 5 4 5 6 7 10 9 9 7 7 8 10 5 7 8 10 12
8 5 7 5 9 8 8 6 4 7 10 14 10 9 17 15 12 18 11 16 13 16 17 20 24 20 18 19 16 18 21 19 20 19 20 27 25 23 24 25 21 23 22 21 19 18 16 16 15 16 14 15 14 13 13 11 9 10 9 7 10 10 9 8 9 8 7 6 7 6 5 4 4 7 4 4 2 2 3 3 4 4 4 4 5 6 8 10 9 8 8 8 7 6 8 10 13
8 6 9 4 3 8 7 6 7 8 13 17 10 11 13 18 11 11 8 12 17 13 10 13 16 15 15 12 13 12 16 18 16 15 15 17 19 23 20 22 19 17 18 20 19 19 16 17 17 17 16 16 15 16 12 12 8 10 10 9 9 10 9 10 9 8 8 6 7 6 7 7 6 8 8 6 3 2 2 3 3 2 2 2 5 5 6 7 9 8 9 9 10 9 8 9 11
7 7 5 4 12 5 7 8 7 13 19 18 12 11 9 17 18 14 18 7 7 13 7 5 3 13 13 10 11 12 11 13 15 17 15 13 13 16 19 19 19 18 18 20 18 19 17 17 18 17 14 16 15 16 13 13 10 11 9 9 10 11 11 11 13 11 10 9 8 9 5 6 5 6 5 7 7 4 5 3 2 1 2 4 5 5 5 6 6 6 9 9 10 10 10 8 8
5 6 5 5 9 9 14 12 12 15 24 14 9 13 16 19 24 19 12 6 6 7 4 3 4 7 9 10 11 12 11 13 16 18 19 16 19 19 19 19 19 18 21 21 21 20 18 16 20 18 15 16 16 15 15 12 9 11 10 9 8 10 10 11 12 10 10 10 9 8 6 6 6 6 8 5 6 6 5 4 2 3 4 5 5 6 6 7 9 9 8 8 10 10 10 10 9
6 7 9 9 13 11 11 10 18 13 17 11 12 8 22 10 11 11 12 10 7 8 9 13 9 7 10 12 9 10 10 14 16 19 19 18 22 21 23 24 24 23 22 25 22 21 18 18 19 20 18 18 15 14 14 13 11 10 8 9 9 9 9 9 8 11 10 11 10 8 8 9 8 7 6 6 8 6 5 5 4 3 3 4 5 6 6 6 6 8 9 10 9 10 10 11 11
17 11 12 15 14 16 12 10 11 9 4 6 9 7 14 6 13 9 10 4 8 4 5 11 11 9 5 9 11 12 13 11 21 21 22 20 23 22 23 24 24 24 24 25 24 23 21 18 20 20 17 17 17 17 13 14 12 11 8 9 9 8 10 8 8 10 11 9 8 9 8 6 7 5 7 6 6 6 5 4 2 1 2 3 4 5 6 6 7 8 7 9 10 9 10 13 13
11 13 16 9 17 12 22 12 8 10 14 13 6 14 7 14 9 9 10 15 11 14 5 6 5 6 7 3 4 5 8 14 19 21 20 21 23 23 22 21 22 24 25 24 24 24 23 21 19 21 19 19 19 16 14 16 13 12 9 10 10 9 8 7 6 5 8 8 7 9 8 6 5 4 3 5 4 6 6 5 2 1 2 1 2 3 5 6 7 8 9 9 11 10 12 12 13
8 10 8 13 9 12 14 12 7 10 12 19 8 11 17 15 14 11 12 8 12 6 10 8 6 10 11 8 4 6 8 4 4 10 13 24 21 23 25 22 21 23 22 24 24 24 24 21 21 20 17 16 18 18 17 15 14 12 11 10 10 9 9 8 9 6 8 7 7 7 6 5 3 4 4 5 5 5 6 4 2 1 2 4 5 5 4 4 5 6 7 8 10 10 12 12 12
23 16 13 13 16 10 12 12 7 9 11 24 10 11 12 8 22 6 10 18 14 8 4 7 6 5 4 5 6 7 7 6 7 7 9 21 22 22 20 21 21 24 25 23 24 22 23 23 23 21 18 19 18 18 17 16 16 14 12 12 10 12 11 10 9 8 8 8 6 5 4 3 3 3 3 3 6 4 2 2 2 3 4 3 3 2 2 3 3 5 6 7 8 10 12 13 13
18 15 7 8 11 11 11 12 12 9 13 17 10 8 15 11 17 10 18 6 7 8 5 11 10 6 4 5 6 6 4 5 7 8 10 22 20 21 23 22 24 25 25 24 24 24 21 19 21 22 22 23 23 21 17 15 15 14 14 14 13 11 9 10 8 9 8 9 7 6 5 5 2 3 5 2 2 1 1 1 1 1 2 4 4 5 4 4 3 5 7 9 7 7 9 11 13
21 13 17 5 8 10 10 15 8 12 13 10 14 10 22 15 12 4 8 8 11 15 11 8 13 13 5 8 8 11 12 14 8 6 4 19 22 26 24 24 23 23 22 23 23 22 23 22 22 21 20 19 18 18 17 17 15 14 12 11 10 10 10 10 8 10 10 9 8 7 6 5 5 4 3 2 1 1 1 2 2 1 2 3 4 4 4 4 5 6 5 8 9 8 9 10 12
12 11 11 12 12 7 8 10 10 10 13 11 12 13 13 17 8 7 9 9 11 16 13 15 18 18 18 16 14 16 16 9 5 3 4 10 11 16 20 21 26 25 24 23 23 24 25 23 23 22 21 20 21 21 19 18 16 15 15 14 13 12 11 10 8 9 9 8 7 7 7 6 5 3 3 2 2 2 2 2 3 4 3 2 4 5 4 4 4 5 6 6 10 11 11 11 11
10 7 11 11 7 13 10 21 8 11 13 18 15 20 18 18 10 7 9 10 6 8 6 6 9 10 10 13 9 10 12 21 20 6 12 15 7 20 20 17 13 17 19 21 23 23 23 24 25 24 22 22 23 21 20 18 17 17 16 15 13 11 12 10 9 9 9 8 7 7 6 6 5 5 5 3 3 3 3 4 5 5 5 4 5 7 7 6 6 5 6 6 8 11 13 14 13
Wind_Speed
5 6 5 6 3 4 3 2 1 1 1 6 6 3 6 2 6 1 3 4 9 3 10 11 14 15 14 12 19 15 11 8 4 5 4 2 6 10 13 14 13 11 10 7 7 6 8 10 12 11 9 9 10 11 13 14 15 16 14 13 14 14 14 14 15 14 14 12 14 13 13 12 10 10 8 7 9 8 9 10 10 11 11 11 12 14 15 14 14 14 15 15 16 17 17 15 14
4 4 5 4 4 1 2 2 0 1 1 4 10 3 11 10 7 2 4 10 5 6 11 12 14 16 18 14 14 20 17 13 12 11 10 9 8 9 12 12 12 12 9 7 6 6 6 9 12 11 9 8 10 11 13 13 13 15 16 15 13 13 13 13 14 14 13 12 13 14 14 12 11 10 9 8 8 8 8 9 10 11 11 11 11 12 14 14 13 13 15 15 15 17 16 14 13
3 5 7 5 3 2 2 1 1 1 3 7 9 6 8 4 6 9 12 11 10 10 14 15 18 9 14 15 16 15 5 13 14 11 7 10 11 7 11 12 12 11 9 6 6 6 5 8 12 12 9 8 9 10 12 13 14 15 16 16 16 14 14 14 13 14 13 12 13 13 13 13 11 11 10 9 8 7 8 8 9 10 10 10 11 12 12 13 13 13 14 14 16 17 16 14 11
3 3 3 3 1 1 1 0 1 2 2 6 8 3 7 7 9 13 13 10 8 10 9 14 12 5 16 18 12 15 9 7 10 12 7 4 5 9 9 11 12 9 7 5 6 6 6 10 12 11 10 8 8 8 9 12 13 14 14 15 16 15 15 14 15 14 13 13 13 14 12 13 12 11 10 9 10 9 9 8 8 8 8 10 11 10 11 12 12 12 13 14 15 17 16 14 11
3 4 3 2 1 1 1 2 3 2 7 3 5 5 3 5 8 9 8 9 6 9 13 12 10 9 11 11 5 5 8 12 14 11 5 6 8 11 10 9 10 9 7 6 6 6 6 14 12 11 10 8 7 7 9 10 12 13 14 15 15 15 15 14 14 14 13 13 13 14 13 12 12 12 11 10 10 10 8 8 7 7 8 8 8 8 8 8 10 11 12 15 16 17 16 13 10
5 4 3 2 2 0 2 2 3 7 8 3 7 4 3 9 7 5 5 6 8 6 10 11 11 10 11 9 4 7 5 4 10 10 10 7 12 14 12 10 9 8 8 7 6 5 6 12 12 12 10 8 7 7 9 10 10 12 13 14 14 14 13 13 14 14 13 13 13 13 13 12 12 12 12 11 10 9 9 9 9 9 9 9 9 8 7 7 8 9 12 15 16 16 14 13 10
2 1 2 1 3 1 2 2 6 6 9 7 10 10 2 6 9 8 7 8 6 17 11 14 18 14 11 4 12 8 9 9 9 10 10 12 13 14 13 11 10 10 9 7 6 6 7 10 11 11 10 8 6 7 8 10 10 10 13 14 13 13 12 13 13 13 13 12 13 13 12 12 12 12 12 12 11 9 9 9 10 9 9 9 9 9 8 8 9 13 12 12 16 15 13 11 9
3 1 1 2 2 1 2 4 7 5 8 5 6 12 6 3 8 8 7 2 2 4 10 12 11 16 9 6 10 8 11 10 15 18 17 13 14 14 15 11 10 11 9 7 5 5 11 10 11 11 10 8 9 8 8 9 9 9 10 10 11 10 11 12 11 12 12 12 13 13 13 13 13 12 12 12 11 11 9 9 10 10 10 10 10 10 10 10 11 13 13 13 15 15 13 10 8
3 3 2 1 3 1 3 5 8 6 11 10 7 3 8 3 5 9 6 4 4 4 11 15 17 17 7 13 10 8 8 12 15 14 12 15 14 13 10 11 9 11 10 8 6 5 5 10 10 10 10 9 7 7 7 8 7 8 9 9 8 9 10 9 11 11 11 11 10 12 13 13 12 11 11 12 11 10 10 9 10 10 11 11 11 11 10 10 10 12 13 14 14 14 13 10 7
2 4 2 2 2 4 4 6 4 9 12 10 12 7 6 5 4 4 8 7 6 8 16 13 16 17 13 14 10 6 8 11 13 13 14 16 15 13 12 11 11 13 11 8 6 6 5 12 11 12 11 10 8 7 7 7 7 8 9 9 9 9 9 10 10 11 11 10 10 10 11 12 12 11 10 12 11 10 10 10 10 11 10 12 12 10 10 10 10 11 11 12 12 13 12 10 7
3 2 1 1 3 5 5 7 7 8 10 6 8 5 6 4 3 4 4 9 8 12 14 18 17 17 12 8 6 7 13 14 14 14 13 13 13 12 10 10 10 9 10 10 7 5 6 7 14 11 12 10 9 9 9 8 8 8 8 8 8 9 9 9 10 11 11 10 10 10 10 11 12 11 11 11 10 10 10 10 10 11 10 11 11 10 10 10 10 10 10 12 11 10 9 8 5
3 3 2 3 4 4 6 6 9 9 10 10 1 2 2 4 4 2 6 7 9 10 13 13 6 15 12 11 6 9 12 14 15 14 14 12 11 11 10 8 10 10 9 8 8 6 5 6 6 12 12 11 10 10 9 8 8 9 9 8 8 9 9 9 10 11 11 10 11 10 10 10 11 10 10 10 10 9 10 10 10 11 12 11 11 10 9 9 10 10 10 11 10 8 8 6 3
4 1 3 3 3 3 8 8 9 10 6 7 6 3 5 4 4 1 2 9 6 7 5 18 16 14 8 7 5 12 13 12 14 16 15 11 10 9 9 9 10 11 10 8 7 7 6 5 5 6 9 14 11 10 9 8 7 8 9 9 8 9 10 10 10 11 11 11 10 10 10 10 10 11 10 10 10 10 10 9 10 11 11 11 11 10 9 9 10 12 12 11 10 9 7 5 3
3 3 2 4 4 4 6 7 7 6 6 4 5 5 4 2 4 5 9 9 7 8 5 19 11 15 12 9 8 9 10 11 14 15 13 13 10 11 11 10 10 10 10 10 8 7 6 5 5 6 6 6 6 8 9 8 7 7 8 8 9 9 10 10 9 10 11 11 10 10 9 9 10 10 10 11 12 11 10 9 9 11 11 11 10 9 9 10 10 11 11 11 10 9 7 6 3
5 2 1 3 5 4 4 5 7 7 4 3 0 5 5 1 7 10 6 13 9 11 14 15 14 13 8 13 7 10 10 12 11 12 10 10 11 11 12 10 10 10 9 9 9 9 8 7 7 6 5 6 6 5 4 6 9 7 7 8 8 10 9 9 9 8 11 11 11 10 9 9 10 11 10 11 13 13 11 10 10 11 11 12 11 10 9 10 11 10 10 10 9 9 8 6 4
4 2 1 1 5 4 6 6 5 7 5 4 3 7 5 7 4 9 10 10 3 5 6 4 3 3 14 11 15 14 13 14 11 11 12 11 9 7 9 7 7 9 9 9 9 8 9 8 7 7 6 7 6 6 6 5 8 8 7 7 8 9 10 9 10 8 6 11 11 10 10 8 8 7 11 9 12 14 12 8 10 11 11 11 11 10 10 11 11 10 9 8 8 8 8 6 4
3 3 3 2 7 5 5 3 2 6 2 2 5 2 2 8 12 8 6 12 12 10 14 9 4 10 11 11 17 17 14 12 12 11 10 7 7 6 6 6 7 5 6 6 6 8 8 8 7 5 6 8 7 7 6 6 6 9 7 7 8 9 9 9 11 12 9 8 9 8 7 4 4 4 4 6 10 8 11 11 11 12 12 11 11 11 11 11 11 11 8 8 7 8 8 7 4
1 3 3 5 6 8 7 5 0 3 1 5 4 4 6 7 3 2 6 10 12 12 14 15 20 14 17 16 16 16 15 13 12 11 9 7 6 6 6 5 7 7 5 4 4 6 6 6 7 6 6 7 6 6 6 6 6 7 4 4 4 5 5 7 6 6 7 3 7 6 4 4 5 4 4 5 4 3 8 11 11 12 12 11 11 10 11 11 11 10 9 7 7 7 8 4 3
3 2 3 7 5 10 6 5 9 4 2 5 2 3 4 4 6 1 5 7 10 12 13 18 16 15 14 15 16 14 13 11 10 11 10 9 8 8 6 4 4 5 5 5 3 4 6 6 5 6 6 7 7 6 6 5 6 5 5 4 4 5 6 4 3 5 4 4 4 4 3 4 6 5 4 5 4 3 2 10 11 12 12 12 10 9 9 10 11 10 9 7 7 8 5 4 3
5 2 5 6 8 9 9 11 4 3 2 2 4 4 2 4 4 0 4 7 11 12 13 15 17 14 13 13 14 12 11 11 10 10 10 8 8 8 6 6 4 5 4 5 5 5 5 5 6 7 5 6 6 6 6 6 4 5 5 5 5 4 4 3 3 3 5 4 4 3 4 4 5 4 8 10 6 1 1 8 10 11 11 11 11 7 7 7 9 10 9 10 7 5 4 4 4
2 5 3 7 6 7 7 8 4 2 5 3 6 2 4 6 4 3 6 5 4 9 17 19 19 19 16 14 11 10 9 8 7 8 10 11 7 6 7 7 7 6 5 4 5 4 7 7 6 3 5 6 6 6 6 6 5 5 4 4 4 3 4 3 3 3 3 4 5 4 4 3 5 5 4 4 4 5 3 3 5 5 4 5 7 3 2 2 3 4 4 6 5 5 4 3 3
1 9 11 11 9 9 6 10 9 9 7 4 5 2 1 2 4 4 7 3 1 3 9 20 21 19 19 15 12 8 8 7 6 11 10 10 8 6 5 5 5 5 6 7 4 5 3 5 6 6 5 4 5 5 5 6 6 5 5 4 5 4 4 3 4 4 3 4 4 5 4 4 4 5 5 4 4 4 3 4 4 3 3 4 4 4 3 3 3 4 5 5 5 5 5 5 4
6 5 8 10 10 10 1 3 7 9 8 6 2 1 1 2 2 3 3 4 1 6 14 16 18 17 15 13 11 8 7 5 8 10 12 11 9 8 8 7 8 7 6 5 4 4 6 6 6 6 6 4 4 5 4 5 5 5 5 4 5 4 4 5 4 5 4 5 3 2 4 4 4 4 5 5 4 4 3 3 5 4 2 4 4 5 4 4 5 5 5 4 4 4 6 4 5
8 6 7 12 9 7 5 5 7 4 8 4 5 1 3 3 1 1 3 5 7 15 17 19 19 17 16 13 9 11 8 7 9 10 10 10 10 8 7 8 6 5 6 4 5 5 6 6 5 5 4 4 4 4 5 5 5 5 5 5 5 6 5 5 4 4 3 5 4 4 1 4 4 4 4 5 4 4 5 3 2 1 3 4 5 5 5 5 5 5 4 5 4 4 5 5 7
7 8 5 5 4 1 7 6 4 2 4 4 5 7 4 1 4 6 5 8 11 19 20 18 17 16 13 13 10 9 7 7 8 8 6 6 8 8 8 7 7 7 6 4 3 6 5 5 5 7 6 4 4 5 5 5 6 5 5 5 5 6 5 4 4 4 5 5 4 3 2 2 3 2 4 4 4 4 3 3 4 3 2 3 5 4 4 5 5 5 5 5 4 4 6 7 9
7 7 3 4 4 2 5 6 2 1 1 1 4 4 5 6 6 1 6 4 8 10 20 20 17 15 14 13 12 8 9 8 8 9 10 8 10 12 8 8 8 7 6 5 6 4 4 4 5 5 4 5 2 6 6 4 5 6 5 5 4 4 5 4 4 5 4 3 4 1 1 1 2 3 3 4 4 2 3 3 1 1 2 1 0 5 2 5 6 5 4 5 5 4 5 6 7
5 5 6 8 2 0 3 6 4 4 3 0 2 1 5 7 3 2 0 7 2 7 14 17 17 14 13 11 10 8 9 9 11 9 9 9 9 10 7 8 8 6 6 5 4 3 4 7 6 5 5 4 2 6 4 6 6 6 6 5 5 4 3 4 5 3 3 2 3 3 2 3 3 2 4 4 3 3 3 4 5 2 1 2 1 1 1 1 3 5 5 5 6 4 5 6 7
4 1 2 5 6 5 3 3 2 1 3 4 1 2 2 5 1 4 2 3 5 7 8 11 14 13 12 13 10 7 8 9 10 10 12 10 8 9 7 8 6 6 6 5 5 6 7 6 5 4 4 4 5 5 5 5 6 7 6 6 5 5 4 4 6 5 5 1 2 4 3 1 2 3 3 3 3 2 2 3 4 4 2 3 4 4 2 3 3 5 4 3 5 5 6 6 6
4 3 3 4 3 3 5 5 4 4 2 4 3 2 4 3 4 6 6 2 6 8 6 8 10 11 12 11 9 9 11 10 9 10 9 9 8 8 9 8 9 7 4 6 6 6 6 5 5 4 5 5 6 5 6 6 5 6 5 4 4 3 3 5 5 5 6 6 2 4 5 4 2 4 2 3 4 3 2 1 2 2 5 5 4 3 1 2 2 5 8 8 7 2 2 4 4
3 0 2 4 4 3 5 4 4 5 2 8 7 2 5 7 10 7 8 4 6 6 4 6 6 11 11 10 9 10 10 10 10 10 9 9 8 10 11 6 8 8 6 5 6 6 4 4 4 4 5 6 5 5 6 6 5 5 5 4 3 1 3 4 5 5 5 6 6 4 3 5 4 3 4 3 3 4 4 3 3 3 2 6 6 4 3 2 1 2 5 6 9 4 1 5 3
1 2 1 3 4 5 5 7 8 5 4 9 7 2 5 8 9 10 4 12 10 5 4 3 7 11 11 10 10 11 11 12 12 11 9 9 9 10 10 8 9 7 7 6 6 5 5 5 4 4 4 5 5 5 5 5 5 5 5 4 3 3 2 6 3 4 5 4 5 6 4 3 4 4 4 5 4 3 3 3 3 1 2 3 4 5 6 7 3 3 2 3 8 6 4 5 5
1 1 5 2 6 8 9 8 11 10 2 11 7 3 8 7 9 11 5 10 11 8 6 4 5 11 11 10 11 11 11 12 13 13 10 10 11 10 11 11 10 9 8 7 6 5 6 5 5 5 5 5 4 4 4 4 5 5 4 3 3 4 5 3 3 6 5 6 5 5 5 3 4 4 4 5 4 2 2 3 3 3 2 3 3 5 6 5 3 1 3 4 6 7 5 3 3
1 4 3 4 5 10 7 7 11 13 6 8 12 4 3 1 3 8 12 12 12 8 5 5 5 9 12 10 10 11 11 11 13 13 10 11 11 11 11 11 11 10 9 8 7 6 6 6 6 6 5 5 4 4 4 4 5 4 3 3 4 4 6 4 4 6 5 6 5 5 3 2 2 2 3 3 4 4 3 3 4 3 2 3 3 2 2 3 4 3 2 4 5 6 4 4 5
5 3 7 7 6 5 5 6 11 10 10 4 5 3 4 3 4 3 9 8 8 5 5 6 5 5 10 8 10 12 12 12 13 12 12 12 11 12 11 12 12 11 9 9 8 8 8 7 6 5 5 5 5 4 4 4 4 4 4 4 4 5 4 5 6 6 7 6 5 5 3 5 5 5 5 3 3 3 4 4 3 3 2 1 2 5 2 3 3 2 2 4 4 8 6 1 3
1 2 2 6 6 7 5 6 8 9 11 8 6 6 5 5 2 3 6 5 6 6 5 5 7 7 9 8 8 13 9 12 12 12 14 13 13 12 12 12 12 12 9 10 8 8 7 6 6 6 5 5 4 4 4 3 2 2 3 3 4 4 4 5 6 6 6 6 5 3 5 6 5 5 3 3 6 5 5 4 1 3 2 2 1 2 6 5 4 4 5 6 7 10 2 0 3
1 3 0 3 4 4 6 7 8 14 7 5 8 9 7 7 3 5 6 7 8 9 7 5 6 8 8 8 7 11 10 10 10 12 15 13 13 13 14 13 12 12 11 10 9 8 8 6 5 5 5 5 4 3 2 1 2 4 3 3 5 3 3 5 4 5 5 6 4 4 5 5 5 4 4 5 4 4 4 5 3 2 2 2 3 2 2 4 4 6 8 8 8 6 3 3 2
1 2 4 3 7 6 5 11 3 4 4 5 4 6 5 5 4 4 6 3 6 6 7 5 5 6 8 9 9 8 9 10 13 16 17 17 16 15 14 13 12 12 12 13 11 9 8 8 7 6 5 4 4 3 2 3 1 1 4 5 5 4 5 4 3 3 4 3 4 3 4 3 4 3 4 4 3 3 2 3 5 6 4 3 3 3 3 1 5 6 5 6 7 4 3 3 3
3 2 4 6 5 3 2 3 1 2 2 1 2 0 2 3 2 5 0 5 6 6 5 7 5 7 8 9 8 8 7 4 10 10 12 14 13 13 13 12 12 13 10 12 13 12 9 8 8 7 5 4 4 5 4 4 3 5 5 5 4 6 7 5 1 1 3 3 3 3 3 4 5 3 2 4 2 2 0 1 3 5 5 5 5 3 3 3 3 3 2 1 2 3 3 2 3
3 1 1 3 6 3 4 2 6 6 2 3 4 2 4 4 5 4 6 3 5 8 10 8 10 8 8 9 9 8 6 7 12 10 9 13 14 13 13 12 12 14 13 13 12 11 10 9 8 6 7 5 4 5 5 6 3 3 4 3 6 3 2 4 4 2 3 3 3 3 4 4 4 3 2 1 2 3 3 2 2 2 3 5 4 4 3 4 4 4 3 3 2 2 2 2 3
1 3 4 2 4 4 4 2 3 4 2 2 2 4 5 4 4 6 5 7 5 8 10 9 7 8 8 8 8 8 8 8 11 16 13 14 15 14 12 12 13 11 12 10 11 12 10 9 8 7 7 5 5 4 5 5 6 5 5 6 4 5 3 3 3 1 3 4 2 3 3 4 3 0 1 1 3 1 1 1 1 3 3 1 3 3 3 3 3 4 3 3 3 3 2 2 4
4 2 2 3 3 5 2 2 0 1 1 1 2 3 5 5 7 6 9 7 7 7 11 7 5 6 7 6 5 7 10 8 9 12 11 10 13 14 15 15 13 12 12 12 11 11 9 11 10 10 8 6 5 5 7 6 5 5 4 3 3 4 4 3 3 3 2 2 3 4 3 4 4 2 2 3 2 2 2 3 3 3 3 4 4 2 1 3 4 4 4 3 4 5 5 3 2
2 3 4 6 5 7 6 1 3 4 5 2 3 3 3 5 9 10 10 4 6 6 13 10 9 7 5 5 6 5 4 5 9 13 15 15 15 13 13 13 13 12 13 12 12 11 10 9 10 9 7 6 6 7 7 7 7 6 4 5 3 3 4 4 5 3 2 4 3 1 2 4 2 1 0 0 1 1 1 1 2 3 3 5 4 4 3 2 1 2 4 5 5 5 5 4 5
1 4 4 5 7 8 7 3 2 1 1 5 3 7 5 5 5 6 6 7 12 5 11 12 8 7 8 8 8 7 8 6 5 6 5 14 16 15 14 14 14 14 13 11 10 10 10 10 11 9 8 7 8 7 7 7 6 5 6 7 5 6 6 2 3 4 5 4 4 4 2 2 3 2 0 1 1 1 1 1 2 2 3 3 4 4 5 4 3 3 2 3 5 4 4 6 8
3 2 4 4 4 7 13 7 4 3 3 3 4 5 4 4 9 9 6 7 9 9 8 9 10 11 11 10 11 10 11 9 9 8 11 14 15 16 16 15 14 15 13 11 10 10 11 10 11 9 8 8 8 8 7 8 8 6 5 5 5 7 7 6 5 4 4 4 5 3 3 2 4 3 3 1 1 0 1 2 3 4 4 5 5 6 5 5 5 4 5 3 3 3 4 6 7
4 3 4 5 5 2 2 6 2 2 1 6 3 4 1 3 8 9 5 2 5 8 11 12 9 9 13 13 12 12 12 10 10 9 12 15 17 15 16 15 14 14 13 13 12 11 11 9 10 9 9 9 8 9 8 7 7 7 7 5 5 6 7 7 5 4 4 4 4 4 3 2 3 3 4 1 0 0 1 3 3 3 3 3 3 5 5 5 5 5 5 6 4 3 3 4 4
4 2 3 1 4 2 4 3 2 2 0 7 5 2 3 5 6 9 6 6 7 9 11 9 12 14 12 13 12 13 13 11 11 12 14 17 16 15 16 16 14 14 13 13 12 10 10 9 10 10 9 9 8 8 9 7 6 6 6 5 6 6 6 5 5 5 4 4 4 4 3 3 3 3 3 3 1 1 2 2 3 3 3 3 3 3 4 5 5 5 5 5 5 4 4 4 6
5 4 2 2 1 3 3 1 2 3 4 8 6 6 5 5 5 6 3 4 9 8 5 7 10 10 9 8 9 8 10 12 10 8 8 11 13 15 13 14 12 11 11 12 11 11 10 10 10 12 10 9 9 10 8 8 5 6 6 6 6 7 6 6 5 5 5 4 5 4 4 4 4 5 4 4 2 1 1 2 2 2 1 1 3 3 4 4 5 4 5 5 6 6 5 4 5
4 2 1 2 5 3 2 2 1 2 6 11 7 5 4 5 7 6 9 3 2 6 5 3 2 8 7 7 6 7 8 8 9 8 8 9 8 11 12 12 12 12 11 12 11 10 10 10 11 11 9 10 9 9 8 8 6 6 6 6 7 7 7 6 8 7 6 6 5 5 4 4 4 4 4 4 4 3 3 2 1 1 1 2 3 3 3 4 4 4 5 5 6 5 5 5 4
2 4 3 3 2 1 2 1 2 5 7 7 3 4 5 6 11 11 8 4 4 0 1 1 3 5 6 7 7 8 7 9 10 10 10 9 11 12 12 12 12 12 13 14 13 12 11 10 13 12 10 10 10 10 9 8 6 7 6 6 6 6 6 7 7 6 6 6 6 5 4 4 3 4 5 4 4 4 3 2 2 2 2 2 3 3 4 5 6 6 5 4 5 6 5 5 6
4 3 4 3 2 1 3 3 3 4 5 4 6 3 6 4 5 8 8 7 3 5 6 7 6 5 7 8 6 6 6 9 10 11 11 9 11 12 14 15 15 14 14 15 14 13 10 11 13 13 12 11 10 9 10 8 7 7 6 6 6 6 5 6 5 7 6 7 6 5 5 6 6 4 4 4 5 4 3 3 3 1 1 2 3 3 4 4 4 5 6 6 6 6 6 6 6
6 4 6 7 5 2 3 3 4 3 2 2 5 0 3 3 5 6 7 3 3 1 2 4 5 5 4 6 7 7 8 8 13 12 13 13 14 15 14 15 15 15 16 15 14 14 13 11 13 13 11 11 11 11 8 9 8 7 5 6 6 5 6 5 5 6 7 6 5 5 5 4 5 3 5 4 4 4 4 3 2 1 1 2 2 3 3 3 4 4 4 5 6 5 6 6 7
2 5 5 4 7 5 8 3 0 1 2 2 1 3 3 4 4 5 6 10 7 6 1 3 1 2 5 3 4 4 6 9 12 13 13 14 15 14 14 13 13 14 16 15 16 14 14 13 13 14 13 12 12 11 9 10 9 7 6 6 6 6 5 4 4 4 5 5 5 6 5 4 3 3 3 3 3 4 4 3 2 1 0 0 0 1 2 3 4 4 5 4 6 5 7 8 7
2 5 2 6 5 4 3 2 1 3 2 5 1 3 7 7 8 7 9 5 8 4 7 2 3 4 6 6 3 4 5 2 1 7 8 11 9 12 14 14 13 13 13 15 15 15 16 14 13 13 11 11 12 11 11 10 9 8 7 7 6 6 6 5 5 4 5 4 5 4 4 3 3 2 3 3 3 4 3 3 2 1 0 2 3 4 3 3 3 3 4 4 5 5 6 7 7
3 4 7 4 4 4 4 3 1 1 2 5 1 4 5 3 6 2 5 9 8 5 3 3 5 3 1 1 3 5 4 4 6 5 6 10 14 15 12 12 14 14 16 15 16 14 14 14 15 14 12 13 11 11 11 10 10 9 8 8 7 8 7 6 6 5 5 5 4 4 3 2 2 2 2 2 3 3 1 1 1 1 1 1 1 1 1 1 2 3 3 4 4 4 6 6 6
6 7 3 1 2 4 5 1 1 0 2 3 2 3 4 4 6 3 12 3 4 5 3 6 5 4 3 4 5 5 2 2 3 3 7 10 12 12 13 14 14 16 16 16 15 14 12 12 13 14 14 15 15 12 11 9 9 8 8 8 8 7 6 6 5 6 5 6 5 4 3 3 1 2 3 2 2 1 1 0 1 0 0 0 1 2 2 2 2 3 3 4 4 4 5 5 6
6 6 7 2 2 4 1 4 3 5 4 1 6 3 5 3 3 1 3 5 4 9 7 6 10 9 1 4 5 8 8 10 5 3 1 10 13 14 15 15 15 15 14 14 15 13 14 13 13 13 12 12 12 11 11 11 9 8 7 7 7 6 6 6 5 7 6 6 5 4 4 4 4 3 2 2 1 0 1 0 0 0 0 0 1 1 1 2 3 3 3 4 3 4 5 6 6
5 3 4 3 0 1 2 1 2 2 1 2 2 3 3 7 3 5 5 4 5 5 6 7 7 8 10 9 8 8 8 6 4 4 1 7 7 9 12 13 15 15 15 14 13 15 15 13 13 14 14 13 13 13 12 11 9 9 9 9 8 7 7 6 5 6 6 5 5 5 4 4 3 2 2 1 2 2 1 1 2 2 1 1 1 2 2 2 2 3 3 3 3 4 5 6 5
5 2 2 5 4 5 5 9 2 1 2 2 1 6 6 10 4 4 6 4 4 5 4 4 5 6 5 5 4 5 7 9 8 3 7 8 4 12 9 10 7 7 7 9 10 11 13 13 15 14 13 13 14 13 12 11 10 10 10 9 8 7 7 6 6 6 6 5 5 4 4 4 4 3 3 2 3 2 2 2 3 3 3 3 3 4 4 4 4 3 3 3 3 3 5 7 7
Wind_Direction
317 304 279 272 250 238 323 215 77 283 111 249 267 214 258 263 242 242 144 113 79 40 80 68 60 63 78 98 92 78 40 58 330 141 174 131 132 134 125 127 131 126 125 128 122 112 111 110 104 100 105 111 112 124 139 145 145 136 133 134 131 132 132 130 127 126 125 123 119 118 116 112 110 106 98 88 98 104 109 109 110 114 113 113 113 112 110 108 108 109 112 111 110 107 106 108 113
309 315 308 278 257 191 279 173 118 271 221 311 255 226 247 251 280 163 78 71 98 109 78 72 63 89 95 107 103 83 62 63 58 86 99 122 111 113 126 128 130 126 129 129 121 117 108 106 103 99 102 108 115 129 139 148 146 139 137 134 129 128 133 132 130 130 127 126 124 122 122 120 117 112 109 99 93 97 100 106 111 115 118 120 116 114 115 113 112 112 115 116 113 111 109 110 116
320 337 319 306 232 195 282 320 254 208 194 246 264 223 267 268 238 101 93 81 86 94 81 62 52 51 90 78 60 86 110 100 96 89 100 125 110 125 126 128 123 121 120 122 121 112 110 112 107 107 107 111 119 133 141 145 146 144 141 140 137 135 138 139 133 130 130 128 126 123 125 123 121 117 115 110 95 91 98 103 110 113 119 118 116 116 115 113 115 116 118 121 119 113 112 116 119
313 253 234 2 329 119 296 334 191 205 233 247 291 285 292 96 84 93 88 95 86 79 71 67 61 333 87 77 87 71 86 97 106 122 117 130 123 125 124 119 113 116 116 116 117 111 116 115 108 105 102 106 121 129 135 140 142 142 140 141 141 143 146 144 136 133 134 132 130 126 125 123 120 114 113 104 103 101 93 98 101 100 109 118 117 116 116 116 118 120 121 121 119 116 117 121 124
309 276 195 256 264 233 178 195 192 172 239 210 255 304 331 53 84 81 99 114 111 101 98 100 88 45 56 88 90 86 97 94 80 85 98 106 123 119 121 107 111 116 117 116 108 108 114 116 109 102 100 105 120 130 133 140 142 143 140 141 142 145 148 142 138 135 134 132 129 127 127 124 121 115 110 107 108 109 101 96 94 98 94 95 101 104 106 112 120 122 124 126 123 118 121 124 129
262 284 244 145 214 29 346 298 260 240 238 256 272 251 95 112 106 120 112 91 100 95 94 96 105 97 67 54 65 98 142 111 103 99 124 135 128 119 112 107 109 109 107 102 103 108 113 116 110 104 102 109 119 127 124 135 142 145 142 140 143 146 150 144 139 135 133 131 130 128 126 123 120 112 109 110 110 107 101 97 96 101 100 100 99 100 103 104 114 114 120 130 121 120 123 127 132
273 13 302 148 289 269 192 257 256 247 257 223 243 267 100 128 117 102 85 61 45 84 88 103 109 100 89 88 67 57 72 95 113 123 119 130 117 111 114 113 113 113 109 103 107 110 115 108 107 107 105 100 109 118 125 131 143 145 140 141 145 148 149 140 136 134 132 130 128 127 127 123 114 110 111 113 111 106 104 104 99 100 103 101 98 97 94 98 103 113 127 130 120 121 125 129 135
242 298 249 127 267 155 259 240 266 255 265 222 263 271 192 150 133 118 85 59 121 104 130 121 91 85 79 101 96 74 65 74 99 110 127 130 118 111 110 112 116 115 105 108 107 114 113 98 103 105 104 107 113 118 123 129 134 137 133 135 136 139 140 135 131 127 127 124 128 129 127 122 117 114 115 116 114 111 109 107 103 101 102 102 102 101 101 106 114 127 132 129 123 125 129 134 143
245 175 274 350 275 269 242 230 240 249 264 262 272 311 101 114 84 113 142 123 154 106 113 108 101 93 113 87 85 89 80 83 82 85 93 107 109 110 111 114 117 122 120 116 107 95 95 97 94 101 103 101 98 101 113 120 126 130 127 132 132 130 130 129 122 122 125 119 122 126 127 120 115 112 114 113 115 114 110 107 104 102 103 108 107 107 110 115 123 133 137 132 130 129 131 140 153
255 171 274 202 185 249 253 266 240 239 243 246 243 232 134 133 149 144 130 131 120 81 83 96 100 109 117 101 113 120 115 101 99 93 89 93 107 111 112 115 121 127 128 120 116 117 116 109 96 96 98 98 95 85 82 96 121 122 124 132 135 129 129 126 120 123 124 119 120 120 120 117 117 118 115 115 117 113 107 108 107 105 108 111 110 108 110 116 123 132 135 124 129 130 133 143 160
266 194 200 327 284 264 246 263 252 265 251 250 259 190 148 143 110 125 86 119 112 111 110 107 99 118 116 107 97 126 116 114 108 102 94 92 100 109 113 117 120 125 128 131 126 123 110 117 110 95 95 95 96 89 83 87 102 110 119 123 126 124 123 120 122 122 121 123 123 118 118 120 121 123 119 120 120 107 106 106 108 107 104 107 108 109 113 116 122 128 130 127 135 131 132 140 156
280 239 145 217 250 219 250 247 257 260 256 256 232 243 143 95 94 98 117 109 109 143 137 128 112 117 101 120 136 129 112 108 112 111 107 107 107 112 117 123 123 123 123 125 123 115 115 110 110 105 95 95 93 92 89 94 103 116 120 129 130 127 129 128 126 126 125 127 122 118 120 124 125 123 122 122 116 109 111 115 113 110 109 107 107 111 116 120 120 120 118 122 130 126 129 134 149
222 289 264 242 238 226 258 267 263 266 279 239 175 200 153 103 122 114 187 114 118 110 83 107 135 112 123 130 149 115 114 120 121 124 124 124 126 118 111 113 121 126 126 123 125 122 123 114 110 98 103 100 93 89 88 89 98 116 125 129 134 130 133 131 126 127 128 127 121 120 122 124 126 126 128 126 117 118 117 113 109 110 109 111 110 112 122 125 125 125 127 135 132 127 131 134 136
198 197 208 265 258 256 260 261 275 299 300 241 175 143 145 113 151 136 101 105 80 54 95 129 119 110 119 125 125 117 124 124 120 124 130 133 129 127 127 131 133 133 134 136 132 140 137 128 117 114 112 99 101 102 96 93 91 99 113 122 124 127 131 131 129 129 129 125 124 124 128 132 131 134 137 133 124 119 120 114 111 117 117 116 115 117 128 127 131 135 135 138 136 129 129 132 128
223 268 258 234 281 291 263 264 268 275 270 275 317 121 129 166 127 59 87 87 69 111 96 107 126 118 173 143 147 137 139 125 115 113 118 123 127 132 138 139 142 137 137 142 147 146 144 137 131 136 144 127 120 109 99 113 112 107 112 118 123 127 127 131 129 122 131 129 133 139 141 139 141 144 145 137 128 125 126 124 121 120 125 122 122 127 130 131 132 139 140 140 138 135 135 131 136
196 228 225 268 272 281 279 280 289 282 275 105 328 103 95 58 35 78 93 102 120 41 69 87 175 138 161 142 139 131 125 117 113 108 107 109 110 111 123 130 129 140 152 156 155 151 149 148 151 154 157 146 144 138 132 129 131 128 129 131 129 129 132 129 119 134 132 138 144 148 153 149 143 143 146 134 134 129 128 135 132 131 132 130 133 137 139 136 140 144 138 141 139 139 135 137 137
231 190 277 297 282 269 256 252 301 269 229 61 118 72 75 92 91 103 124 105 97 74 66 49 64 127 130 116 119 121 120 114 111 109 103 94 92 98 95 97 111 132 149 152 143 145 148 152 155 164 161 153 155 148 139 136 142 141 138 133 137 134 134 132 133 138 159 153 148 154 151 135 129 135 126 137 136 130 139 143 144 141 140 139 141 143 142 142 145 145 142 146 147 142 139 137 142
226 212 206 261 241 265 259 262 322 24 44 148 130 167 105 109 87 46 71 79 94 94 83 72 64 83 105 114 116 120 121 119 123 121 124 120 112 100 92 102 107 127 133 131 142 147 137 148 148 146 136 137 139 137 136 142 148 145 140 136 129 128 127 133 134 138 151 149 151 157 153 148 113 91 78 83 50 118 144 143 144 146 146 145 146 147 148 148 147 150 151 150 149 148 141 132 152
202 234 169 224 231 247 263 280 299 87 290 287 125 131 78 151 105 38 86 102 102 97 98 91 84 87 93 109 119 122 124 129 136 136 137 132 128 129 136 135 113 107 84 77 82 131 138 126 129 123 130 133 134 135 140 146 154 149 143 144 143 140 153 138 144 148 139 159 166 160 130 101 113 119 111 128 97 351 165 146 146 150 152 155 153 151 152 153 151 152 154 148 148 154 150 152 163
230 203 223 240 242 262 264 273 263 64 4 20 5 97 64 148 88 6 119 134 129 129 120 110 118 119 120 122 126 130 134 149 147 144 136 129 134 138 140 138 114 98 98 94 91 87 108 129 140 142 134 120 119 119 123 142 152 136 148 145 145 145 147 144 157 163 157 175 158 120 100 97 101 113 125 122 126 89 260 155 148 148 154 159 158 151 154 158 153 148 145 153 155 163 169 180 174
179 220 216 239 246 254 286 331 325 352 93 353 53 10 55 145 101 144 129 127 175 153 150 145 144 142 138 138 134 137 150 158 147 117 123 124 130 136 137 135 134 136 121 78 62 84 104 101 98 110 126 134 132 124 121 134 128 103 105 116 131 132 123 141 168 200 176 141 91 79 107 116 114 111 105 124 128 167 176 167 140 142 154 150 150 132 140 171 154 155 167 164 162 162 172 211 190
171 197 227 251 273 283 308 24 1 8 21 37 63 352 30 187 118 114 135 115 310 224 159 144 149 143 138 140 144 140 157 169 117 126 122 124 125 123 110 107 99 93 83 74 53 12 56 104 98 107 120 123 110 124 132 122 114 108 103 99 91 65 70 62 62 38 50 102 108 119 102 106 115 121 132 153 151 154 160 161 154 155 158 146 137 138 160 173 209 205 190 186 185 168 184 192 184
234 243 228 235 236 248 241 46 16 5 357 2 342 243 77 151 86 77 99 129 161 20 159 146 128 126 125 130 136 148 155 159 119 125 124 121 118 116 114 112 108 93 84 95 78 48 50 50 68 65 58 88 126 134 117 102 102 109 103 93 90 78 85 78 61 53 46 93 85 55 102 126 136 135 138 151 148 140 160 157 161 150 168 163 163 145 195 185 213 222 215 202 198 199 189 180 174
200 227 219 234 239 234 119 85 47 2 345 342 338 199 239 154 137 60 87 109 94 64 95 106 113 121 130 131 141 153 163 145 136 130 127 130 129 129 120 111 109 106 93 91 76 86 63 57 52 56 55 64 104 113 90 101 111 104 102 86 79 92 90 87 95 109 99 81 89 91 113 130 137 146 136 142 139 135 160 155 160 105 183 185 189 164 188 196 208 225 226 220 202 208 214 184 178
208 231 250 271 273 163 91 79 42 21 309 351 25 1 350 103 129 166 137 105 91 106 104 106 119 126 130 136 145 154 157 130 138 132 116 117 115 109 102 103 98 96 97 77 71 81 97 93 66 53 31 10 67 106 119 129 124 117 108 100 96 97 83 100 115 103 87 83 53 60 88 97 74 111 135 118 124 138 142 158 181 193 215 206 190 204 184 196 208 230 234 228 212 194 219 180 173
204 238 193 240 225 135 133 119 148 123 326 31 37 312 327 301 25 38 93 87 119 104 119 129 131 135 139 147 153 153 159 134 136 119 123 118 111 102 104 104 103 96 113 89 68 67 73 75 81 68 47 20 36 106 116 101 108 109 112 117 129 107 96 95 107 97 89 91 95 90 233 131 138 122 106 112 123 131 128 106 319 253 247 295 203 214 193 206 205 228 251 252 246 199 222 201 157
214 222 240 263 34 43 151 118 155 131 234 106 203 259 291 305 25 317 116 124 110 108 121 138 139 143 144 148 155 153 145 138 134 133 111 112 110 115 120 110 110 122 98 94 80 58 77 78 63 53 33 19 34 86 85 100 98 104 105 112 112 121 145 118 74 98 137 147 136 137 203 189 175 135 115 110 91 96 134 148 168 165 214 316 31 293 27 251 268 228 225 231 249 245 221 198 162
216 249 340 298 167 184 95 80 3 127 211 257 156 238 273 284 227 220 260 151 158 134 146 137 141 146 149 149 149 147 126 138 133 126 127 125 131 131 128 126 125 116 111 99 90 86 78 79 71 53 44 32 45 62 67 63 90 94 112 112 112 126 131 132 142 136 112 153 168 149 162 226 148 130 127 129 115 114 132 137 156 170 144 48 11 334 313 1 6 320 297 250 229 223 207 190 170
57 42 307 309 337 287 133 143 194 179 233 186 140 288 307 295 248 211 188 231 137 144 155 142 135 144 145 142 137 130 135 139 133 129 137 140 138 128 129 138 131 120 127 126 111 95 101 97 88 65 57 49 50 48 58 56 77 99 111 113 119 125 136 127 130 127 131 137 181 167 151 161 162 130 143 125 133 104 115 113 122 146 143 143 162 204 41 348 20 350 326 330 298 279 156 199 180
82 359 249 328 332 282 199 160 183 169 202 174 103 220 277 267 263 259 199 136 136 115 134 147 133 139 143 144 139 133 137 135 136 143 143 139 131 132 132 138 125 127 128 117 100 103 109 103 105 82 64 58 53 59 62 55 50 88 92 85 90 92 154 137 144 140 128 132 132 132 135 155 168 153 139 114 121 168 163 172 152 146 148 155 165 145 114 304 153 163 279 315 301 272 170 185 160
78 271 173 211 292 277 221 184 175 199 151 115 110 158 280 257 249 249 206 136 136 145 163 181 142 134 149 148 147 144 151 146 149 150 147 139 135 138 133 133 128 126 120 111 124 135 108 113 104 81 83 71 67 62 67 62 74 80 80 72 55 27 126 159 145 120 137 146 126 122 127 155 169 166 150 153 178 186 140 87 79 145 165 196 169 143 159 185 189 180 169 286 291 271 208 175 162
184 6 286 290 190 256 256 192 165 188 190 130 109 198 237 257 279 270 205 159 137 151 185 199 160 139 155 154 151 151 155 151 152 156 151 143 142 143 137 142 137 134 135 141 139 126 117 109 107 108 97 94 84 83 75 91 91 81 88 88 45 39 55 81 132 150 166 131 108 115 124 118 141 173 158 160 169 187 122 116 161 210 169 175 191 167 163 182 168 142 197 212 263 260 221 229 195
227 160 253 250 197 238 269 185 177 171 165 144 145 195 238 290 271 346 177 150 145 152 174 203 172 152 155 157 157 153 153 154 158 160 152 144 150 146 145 144 144 144 140 140 139 132 127 125 118 122 131 127 117 109 110 109 109 101 109 115 83 66 55 44 26 24 86 103 124 113 116 133 161 171 126 165 150 156 114 166 224 207 206 175 130 82 132 185 162 191 278 261 264 286 238 214 222
286 186 211 229 209 249 280 211 165 166 142 196 178 174 221 216 314 31 31 97 127 146 177 190 183 163 158 159 155 157 159 163 166 163 156 150 155 147 148 146 143 142 143 144 145 141 146 144 144 146 146 147 151 153 165 173 153 148 161 144 102 78 69 46 35 48 64 95 95 102 96 72 73 71 108 153 105 113 130 169 248 247 252 248 152 128 149 233 155 128 257 240 243 268 278 247 200
256 352 348 309 274 248 234 161 195 143 158 172 193 194 234 253 176 147 143 136 138 177 195 194 183 166 158 164 153 160 163 170 170 163 158 153 153 148 147 146 144 142 146 145 144 145 145 150 152 152 151 162 171 171 182 199 121 135 154 93 113 107 75 61 69 64 70 64 82 97 81 75 65 61 58 89 96 96 102 107 321 320 333 312 294 157 158 193 213 151 211 230 223 233 198 56 300
35 335 131 287 307 329 289 221 158 182 173 181 158 195 229 259 244 230 187 169 163 187 192 188 186 163 158 162 163 160 171 179 175 161 160 155 157 152 153 151 149 151 149 146 146 149 150 153 148 149 160 172 176 169 126 146 110 126 121 62 82 69 66 71 63 86 72 72 63 64 75 91 79 66 68 67 73 103 122 117 105 311 269 285 289 278 217 175 190 198 207 230 239 231 208 184 100
38 32 359 330 330 337 358 42 32 61 112 207 188 194 214 244 245 211 242 246 176 172 193 193 179 175 167 161 168 164 175 180 173 164 164 165 162 155 153 152 152 151 153 150 149 158 156 157 152 162 187 176 151 138 160 140 129 290 72 81 111 110 104 86 63 69 84 91 82 67 63 89 102 99 84 70 69 75 106 140 151 188 213 215 227 238 247 215 178 202 216 199 214 227 238 184 160
51 51 17 340 342 294 313 167 194 24 116 230 163 71 256 259 287 310 131 181 197 208 208 212 193 177 175 167 172 175 177 188 163 164 165 158 155 152 153 152 152 153 163 153 156 164 162 156 159 176 188 179 158 170 159 137 151 156 136 129 137 120 110 112 108 105 119 92 82 94 82 82 76 73 110 129 132 132 97 127 167 188 194 204 215 219 240 247 238 225 204 302 224 222 246 197 186
352 78 343 351 298 288 317 6 33 15 61 292 349 348 292 297 298 295 294 186 228 210 198 199 198 177 176 170 178 183 177 163 153 171 157 164 158 155 155 156 160 159 163 161 163 158 157 159 165 170 187 166 176 156 145 122 115 110 111 135 127 105 121 149 152 188 135 131 136 117 84 89 80 47 22 118 169 173 181 191 244 235 187 191 183 211 211 237 240 236 215 187 224 276 260 234 201
68 359 31 255 269 321 298 319 71 36 96 298 341 333 284 291 298 284 251 253 216 212 212 207 192 180 170 176 176 177 187 187 159 172 170 167 164 161 157 160 164 162 162 160 162 162 161 162 166 167 181 164 165 150 122 125 115 113 111 117 127 134 157 132 109 56 91 119 134 94 94 104 109 57 341 28 67 60 104 126 70 31 355 198 197 204 223 230 222 241 233 189 163 245 239 260 203
318 301 230 263 293 278 315 239 224 112 3 157 338 353 321 295 285 281 278 247 246 207 213 209 211 187 181 163 154 174 176 176 154 175 172 157 164 166 166 169 164 161 166 169 165 167 170 164 165 169 167 167 151 137 130 125 105 86 83 74 73 57 56 80 83 73 63 98 87 89 116 90 73 70 48 19 30 69 42 25 33 5 360 348 333 305 215 226 226 222 205 200 199 211 232 242 285
304 264 226 238 253 279 285 73 38 26 336 298 224 342 297 254 250 253 259 284 258 191 189 204 205 204 188 186 185 181 197 191 177 164 179 168 171 169 167 166 165 167 171 175 172 168 163 159 160 164 161 158 143 145 142 134 139 140 131 130 118 100 119 128 123 149 112 107 146 152 85 106 86 10 52 10 28 359 27 66 34 1 335 343 340 318 313 335 348 211 218 199 213 220 220 222 242
229 274 229 220 250 259 264 264 50 21 194 281 142 193 264 309 284 253 253 230 235 224 179 197 198 197 201 202 202 204 190 210 223 198 148 171 165 166 170 169 170 171 176 173 171 168 163 155 160 163 163 161 151 153 148 140 142 157 163 171 170 156 158 178 181 143 141 150 117 110 122 140 153 161 267 194 234 338 3 45 37 16 353 341 331 351 341 310 283 289 240 197 218 205 190 233 239
258 253 270 251 224 230 247 247 167 220 213 280 182 142 208 290 282 265 230 232 222 227 216 194 189 197 200 200 205 206 210 195 181 169 159 166 165 166 172 175 173 175 173 170 170 170 167 160 160 164 163 160 161 155 155 154 161 173 171 178 177 159 162 165 160 146 136 136 124 155 165 147 126 163 217 244 121 98 108 30 36 26 22 357 358 356 349 339 338 335 330 307 265 212 194 219 245
210 214 243 255 255 287 256 185 160 186 9 292 290 219 269 251 263 282 278 272 248 222 215 213 203 192 196 205 206 208 207 200 184 179 160 163 170 171 171 175 176 172 169 170 172 174 169 160 158 162 163 163 166 159 160 170 169 176 174 167 130 156 157 161 157 145 142 139 123 131 117 152 139 130 123 91 326 50 78 91 69 57 42 18 13 349 343 340 332 329 332 333 314 274 226 242 247
244 210 251 311 356 348 50 25 47 359 224 267 247 199 218 280 274 284 292 262 248 221 212 200 205 205 194 190 195 197 201 200 200 189 166 165 171 175 176 174 169 171 172 172 170 163 165 162 159 164 164 167 168 164 166 175 176 164 156 160 140 158 157 156 143 151 155 146 150 168 170 182 179 161 148 130 88 48 76 73 70 55 35 4 357 339 326 331 331 329 332 334 322 301 267 236 235
181 128 44 6 344 324 336 18 36 29 288 258 237 234 201 278 268 239 290 210 249 197 183 206 210 202 198 190 198 178 180 195 194 182 164 167 163 172 168 167 166 165 169 169 167 167 165 165 165 168 169 166 167 169 168 182 169 171 162 172 158 168 169 150 146 157 162 149 155 178 180 200 164 168 161 151 150 149 105 91 82 55 35 1 329 316 308 312 321 338 334 337 334 327 313 264 250
144 95 132 38 335 343 331 325 95 217 266 261 249 246 209 233 289 272 253 274 301 137 125 123 204 205 191 201 199 187 160 169 169 160 157 146 142 156 161 164 163 165 165 168 171 167 164 168 166 167 167 168 169 170 170 181 165 176 171 175 169 178 167 157 164 171 171 171 171 180 193 156 161 160 142 154 176 150 109 80 66 50 353 331 310 308 311 319 320 328 330 326 317 315 318 315 270
98 69 58 82 296 28 307 156 265 208 222 246 222 241 305 247 242 255 255 261 287 130 228 192 135 164 214 209 189 178 154 145 150 156 159 150 155 156 164 164 164 164 166 170 171 171 167 166 169 163 173 169 171 171 176 176 166 176 172 174 174 174 166 163 165 172 175 168 166 171 167 176 188 157 178 130 150 137 125 91 72 52 18 354 351 355 340 338 333 327 317 310 308 310 311 314 311
106 140 139 137 223 257 257 248 203 249 265 289 267 222 243 257 267 248 261 233 222 223 198 167 186 175 178 209 184 163 158 143 152 158 165 164 163 165 166 166 170 171 169 169 170 169 169 168 171 168 172 173 167 170 173 172 174 177 171 175 172 161 169 166 164 171 175 168 171 178 173 178 171 176 169 159 157 130 114 124 113 67 28 4 351 344 339 332 333 324 316 309 296 292 306 308 303
214 168 155 180 160 164 227 202 201 211 223 287 290 118 233 247 257 281 304 268 310 211 227 252 211 162 146 177 161 158 159 156 157 169 175 175 176 172 170 169 170 171 170 168 168 170 168 167 172 172 168 174 169 172 168 173 174 176 170 175 167 158 170 168 176 166 168 163 177 173 178 164 151 185 167 190 154 128 135 112 101 85 350 313 324 348 343 348 343 341 330 319 312 309 305 305 299
238 196 181 137 222 174 236 191 124 250 355 332 266 206 185 200 240 288 318 322 323 324 69 135 304 108 83 83 150 166 184 178 162 177 183 179 176 174 171 171 171 170 171 168 170 168 169 170 172 175 169 174 173 168 171 171 174 171 170 169 170 167 166 164 169 153 173 160 164 155 172 162 162 146 149 125 136 132 132 139 137 149 245 24 20 334 335 331 325 320 315 320 321 324 321 313 302
290 341 195 218 196 183 227 318 185 95 43 262 195 340 315 312 340 312 294 297 288 299 300 301 207 221 168 156 177 155 139 128 220 182 173 177 176 171 173 174 173 169 168 171 172 172 171 168 171 175 168 170 172 174 171 171 166 169 177 170 166 167 168 170 178 169 173 163 146 142 143 169 146 128 120 126 134 128 133 133 138 160 203 259 277 274 265 272 287 304 304 312 312 318 317 312 312
205 218 242 276 245 158 135 209 325 197 225 268 37 260 285 303 287 293 281 260 278 316 32 23 35 38 7 277 181 167 180 192 168 189 159 176 176 179 175 176 172 173 174 174 175 173 171 170 174 170 166 168 176 173 173 170 170 172 173 174 173 173 172 176 174 169 164 142 133 127 117 101 145 164 132 108 112 117 124 144 160 215 264 297 271 288 311 312 335 325 317 308 300 303 302 306 307
216 216 173 115 360 351 324 96 242 256 235 279 286 233 261 205 252 290 279 279 269 282 355 32 13 35 12 14 7 349 341 141 211 234 155 174 178 176 175 177 182 180 178 175 173 172 170 174 172 169 172 174 176 176 173 170 168 172 174 174 175 173 170 170 167 161 155 150 148 141 146 184 137 106 105 102 104 103 114 107 123 151 156 12 6 348 360 353 350 333 317 314 312 309 303 300 306
287 284 283 186 128 173 164 175 201 132 243 209 289 247 255 227 209 221 332 13 36 34 33 36 23 3 4 359 22 26 355 327 342 331 92 182 176 183 183 180 178 180 181 180 176 174 175 173 172 176 174 172 169 167 166 171 174 168 170 167 173 170 168 165 160 154 154 153 156 156 167 150 164 138 122 128 132 144 146 181 13 84 131 354 333 303 311 307 313 297 294 303 301 313 306 301 304
320 338 317 338 330 201 108 276 217 160 192 201 230 285 262 250 197 93 47 57 46 59 61 39 40 41 31 35 41 25 20 22 326 329 157 163 213 197 189 186 185 183 182 178 177 178 178 175 177 176 171 170 169 172 171 174 168 169 165 173 174 171 171 163 156 154 153 160 155 162 164 172 146 154 151 158 178 188 207 204 224 238 227 218 248 278 276 266 269 277 281 279 296 304 305 303 303
334 343 234 232 258 291 296 283 11 78 101 214 52 260 267 278 337 38 58 49 68 30 77 99 63 48 34 32 70 71 30 351 0 24 356 339 150 200 207 199 176 181 178 183 184 180 177 181 181 179 172 170 170 171 175 171 171 168 171 174 173 172 165 162 160 156 158 159 164 162 165 145 152 188 155 184 192 206 200 217 226 231 225 225 223 238 254 244 241 242 259 262 282 292 296 295 293